• Processing (Info)

  • MPEC 2022-N07 : 2022 MP3

    The following Minor Planet Electronic Circular may be linked-to from your own Web pages, but must not otherwise be redistributed electronically.

    A form allowing access to any MPEC is at the bottom of this page.


    Read MPEC 2022-N06 Read MPEC 2022-N08


    M.P.E.C. 2022-N07                                  Issued 2022 July 1, 11:47 UT
    
         The Minor Planet Electronic Circulars contain information on unusual
             minor planets and routine data on comets.  They are published
        on behalf of Division F of the International Astronomical Union by the
              Minor Planet Center, Smithsonian Astrophysical Observatory,
                              Cambridge, MA 02138, U.S.A.
    
                 Prepared using the Tamkin Foundation Computer Network
    
                                  MPC@CFA.HARVARD.EDU
                URL https://www.minorplanetcenter.net/    ISSN 1523-6714
    
                                    2022 MP3                                 
    
    
    Observations:
         K22M03P*KC2022 06 28.96059 15 13 59.86 -36 30 10.7          19.5 GVEN007W94
         K22M03P KC2022 06 28.96624 15 14 10.19 -36 29 40.4          18.7 GVEN007W94
         K22M03P KC2022 06 28.97189 15 14 20.45 -36 29 11.3          17.9 GVEN007W94
         K22M03P KC2022 06 29.14822 15 19 38.51 -36 12 14.1          19.5 GVEN007W95
         K22M03P KC2022 06 29.15343 15 19 47.87 -36 11 41.6          19.0 GVEN007W95
         K22M03P KC2022 06 29.15863 15 19 57.23 -36 11 09.3          19.3 GVEN007W95
         K22M03P KC2022 06 29.16555 15 20 09.63 -36 10 25.4          18.6 GVEN007W95
         K22M03P KC2022 06 29.17074 15 20 19.03 -36 09 52.5          18.5 GVEN007W95
         K22M03P KC2022 06 29.17592 15 20 28.43 -36 09 19.5          18.5 GVEN007W95
         K22M03P KC2022 06 29.83062 15 40 25.02 -34 59 53.1          19.0 RVEN007L29
         K22M03P KC2022 06 29.83200 15 40 27.33 -34 59 43.6          19.0 RVEN007L29
         K22M03P KC2022 06 29.91487615 42 59.804-34 50 06.18         18.7 GXEN007Y00
         K22M03P KC2022 06 29.91917215 43 06.963-34 49 37.88         19.2 GXEN007Y00
         K22M03P KC2022 06 29.92346615 43 14.117-34 49 09.72         19.1 GXEN007Y00
         K22M03P |C2022 06 29.98161 15 44 55.23 -34 41 51.8          19.7 VuEN007807
         K22M03P |C2022 06 29.98488 15 45 00.69 -34 41 30.6          19.5 VuEN007807
         K22M03P |C2022 06 29.98814 15 45 06.11 -34 41 08.6          19.7 VuEN007807
         K22M03P |C2022 06 30.99943 16 12 32.67 -32 35 43.7          19.3 VuEN007807
         K22M03P |C2022 07 01.00270 16 12 37.44 -32 35 19.5          19.0 VuEN007807
         K22M03P |C2022 07 01.00598 16 12 42.26 -32 34 54.6          19.5 VuEN007807
    
    Observer details:
    807 Cerro Tololo Observatory, La Serena.  Observers T. Linder, R. Holmes, L.
        Horn.  0.61-m f/6.5 Dall-Kirkham Astrograph + CCD.
    L29 Drebach-South Observatory, Windhoek.  Observer J. Lorenz.  0.40-m/f3.6
        reflector + CCD.
    W94 MAP, San Pedro de Atacama.  Observers A. Maury, G. Attard.  Measurers A.
        Maury, G. Attard, D. Parrott.  0.28-m f/2.2 Schmidt astrograph + CCD.
    W95 Observatorio Panameno, San Pedro de Atacama.  Observers A. Maury, G.
        Attard, J. Fabrega.  Measurers A. Maury, G. Attard, D. Parrott.  0.40-m
        f/3.8 reflector + CCD.
    Y00 SONEAR Observatory, Oliveira.  Observer C. Jacques.  0.45-m f/2.9 0.45-m
        f/2.9 reflector + CCD.
    
    Orbital elements:
    2022 MP3                                                 Earth MOID = 0.0308 AU
    Epoch 2022 Aug. 9.0 TT = JDT 2459800.5                  Veres                   
    M  29.50843              (2000.0)            P               Q                  
    n   0.40689517     Peri.  316.82142     -0.51448436     +0.84950148             
    a   1.8036310      Node   281.89493     -0.75065858     -0.51204967             
    e   0.4528020      Incl.    6.85808     -0.41450880     -0.12709198             
    P   2.42           H   24.19          G   0.15           U   8                  
    Residuals in seconds of arc
    220628 W94  0.3+  0.7-    220629 W95  0.6-  0.1+    220629 807  0.3-  0.4+
    220628 W94  0.4+  0.1-    220629 W95  0.1+  0.3+    220629 807  0.1-  0.2-
    220628 W94  0.3-  0.8-    220629 L29  0.0   0.1-    220629 807  0.0   0.0
    220629 W95  0.0   0.1-    220629 L29  0.1+  0.0     220630 807  0.2+  0.1+
    220629 W95  0.2-  0.1-    220629 Y00  1.0+  0.3+    220701 807  0.1-  0.2-
    220629 W95  0.2-  0.4-    220629 Y00  0.9+  0.2+    220701 807  0.0   0.0
    220629 W95  1.1-  0.0     220629 Y00  0.9+  0.0
    
    Ephemeris:
    2022 MP3                 a,e,i = 1.80, 0.45, 7                   q = 0.9869
    Date    TT    R. A. (2000) Decl.     Delta      r    Elong.  Phase     V
    2022 06 01    09 02 53.1 -15 06 11   0.1461  0.9876    75.5    96.3    23.4
    ...
    2022 06 16    10 14 51.7 -26 02 31   0.07742 1.0100    83.5    92.1    21.9
    ...
    2022 06 24    12 32 24.5 -37 16 11   0.05043 1.0333   108.3    69.1    20.2
    ...
    2022 06 30    15 45 18.2 -34 39 51   0.04889 1.0554   141.6    36.8    19.2
    2022 07 01    16 12 25.4 -32 35 52   0.05080 1.0594   146.5    32.0    19.2
    2022 07 02    16 36 15.7 -30 23 26   0.05323 1.0635   150.9    27.7    19.2
    ...
    2022 07 08    18 04 59.6 -18 51 54   0.07582 1.0901   164.9    14.0    19.6
    ...
    2022 07 16    18 53 08.5 -10 54 21   0.1171  1.1298   164.6    13.8    20.6
    ...
    2022 07 31    19 27 21.2 -06 01 01   0.2113  1.2142   158.5    17.9    22.2
    
    M. P. C. Staff               (C) Copyright 2022 MPC           M.P.E.C. 2022-N07
    


    Read MPEC 2022-N06 Read MPEC 2022-N08


    MPEC number:

    Enter an MPEC number in one of the following forms:

    • 1997-B01 (the full form)
    • J97B01 (the packed version of the full form)
    • B01 (the abbreviated form)